This is the latest recevied weather packets stored in our database for station/object K5FEP. If no packets are shown the sender has not sent any weather packets the latest 10 day(s).
| Time | Temp. | Humidity | Pressure | Rain* | Wind** | Luminosity | Snow |
|---|---|---|---|---|---|---|---|
| 1788419007 | 22.78° C | 86% | 1015.8 hPa | 0 mm | - | 0 W/m² | - |
| 1788418702 | 23.33° C | 85% | 1016 hPa | 0 mm | - | 0 W/m² | - |
| 1788418401 | 23.33° C | 84% | 1016.2 hPa | 0 mm | - | 0 W/m² | - |
| 1788418101 | 23.33° C | 84% | 1016.1 hPa | 0 mm | - | 0 W/m² | - |
| 1788417796 | 23.33° C | 84% | 1016.1 hPa | 0 mm | - | 0 W/m² | - |
| 1788417492 | 23.33° C | 83% | 1016.3 hPa | 0 mm | - | 0 W/m² | - |
| 1788417187 | 23.89° C | 83% | 1016 hPa | 0 mm | - | 0 W/m² | - |
| 1788416883 | 23.89° C | 83% | 1016.3 hPa | 0 mm | - | 0 W/m² | - |
| 1788416582 | 23.89° C | 83% | 1016.3 hPa | 0 mm | - | 0 W/m² | - |
| 1788416286 | 23.33° C | 84% | 1016.1 hPa | 0 mm | - | 0 W/m² | - |
| 1788415977 | 23.33° C | 84% | 1016.1 hPa | 0 mm | - | 0 W/m² | - |
| 1788415674 | 23.33° C | 83% | 1016.2 hPa | 0 mm | - | 0 W/m² | - |
| 1788415373 | 23.33° C | 83% | 1016.2 hPa | 0 mm | - | 0 W/m² | - |
| 1788415070 | 23.89° C | 83% | 1016.5 hPa | 0 mm | - | 0 W/m² | - |
| 1788414769 | 23.33° C | 83% | 1016.4 hPa | 0 mm | - | 0 W/m² | - |
| 1788414464 | 23.89° C | 83% | 1016.3 hPa | 0 mm | - | 0 W/m² | - |
| 1788414159 | 23.89° C | 82% | 1016.7 hPa | 0 mm | - | 0 W/m² | - |
| 1788413856 | 23.89° C | 82% | 1016.5 hPa | 0 mm | - | 0 W/m² | - |
| 1788413556 | 23.89° C | 81% | 1016.6 hPa | 0 mm | - | 0 W/m² | - |
| 1788413251 | 23.89° C | 81% | 1016.6 hPa | 0 mm | - | 0 W/m² | - |
| 1788412947 | 23.89° C | 81% | 1016.5 hPa | 0 mm | - | 0 W/m² | - |
| 1788412642 | 24.44° C | 80% | 1016.6 hPa | 0 mm | - | 0 W/m² | - |
| 1788412338 | 24.44° C | 79% | 1016.4 hPa | 0 mm | - | 0 W/m² | - |
| 1788412033 | 24.44° C | 78% | 1016.4 hPa | 0 mm | - | 0 W/m² | - |
| 1788411732 | 25° C | 78% | 1016.5 hPa | 0 mm | - | 0 W/m² | - |
* Rain latest hour (hover to see other rain measurements)
** Current wind speed in m/s (hover to see current wind gust speed)